Regional Weather Roundup
Issued by NWS Little Rock, AR

Home | Current Version | Previous Version | Graphics & Text | Print | Product List | Glossary On
Versions: 1 2 3 4 5 6 7 8 9 10 11 12 13 14 15 16 17 18 19 20 21 22 23 24 25 26 27 28 29 30 31 32 33
000
ASUS44 KLZK 262205
RWRLZK

WEATHER ROUNDUP FOR ARKANSAS
NATIONAL WEATHER SERVICE LITTLE ROCK AR
500 PM CDT THU APR 26 2018

NOTE: "FAIR" INDICATES FEW OR NO CLOUDS BELOW 12,000 FEET WITH NO
SIGNIFICANT WEATHER AND/OR OBSTRUCTIONS TO VISIBILITY.

ARZ001-003-010-029-262300-
NORTHWEST ARKANSAS

CITY           SKY/WX    TMP DP  RH WIND       PRES   REMARKS
FAYETTEVILLE   CLOUDY    60  48  64 VRB5      29.98F
FORT SMITH     PTSUNNY   66  49  54 N7        29.96F
HARRISON       CLOUDY    60  48  64 NW8       29.97S
BENTONVILLE    CLOUDY    59  48  67 VRB5      30.01S
ROGERS         CLOUDY    58  47  66 NE5       30.00S
SILOAM SPGS    CLOUDY    60  48  64 NE3       30.00S
HIGHFILL       CLOUDY    62  47  57 N7        29.99S
SPRINGDALE     CLOUDY    59  48  67 NE5       30.00F
$$

ARZ004-005-016-262300-
NORTH CENTRAL ARKANSAS

CITY           SKY/WX    TMP DP  RH WIND       PRES   REMARKS
BATESVILLE     CLOUDY    67  50  54 VRB3      29.92S
FLIPPIN        PTSUNNY   63  50  62 NW9       29.95R
MTN HOME       CLOUDY    63  48  58 NW7       29.93S
$$

ARZ040-041-262300-
WEST CENTRAL ARKANSAS

CITY           SKY/WX    TMP DP  RH WIND       PRES   REMARKS
MENA           CLOUDY    64  52  63 N8        29.96F
MOUNT IDA      PTSUNNY   64  51  62 NW8       29.93S
$$

ARZ009-017-025-026-028-262300-
NORTHEAST ARKANSAS

CITY           SKY/WX    TMP DP  RH WIND       PRES   REMARKS
CORNING        FAIR      66  48  52 NE7       29.91S
JONESBORO      PTSUNNY   63  51  65 N6        29.91S
NEWPORT        FAIR      63  56  78 NE12      29.92R
WALNUT RIDGE   FAIR      64  50  60 NE7       29.92S
BLYTHEVILLE    FAIR      63  50  62 N14       29.90R
$$

ARZ022-023-033-042-044-262300-
CENTRAL ARKANSAS

CITY           SKY/WX    TMP DP  RH WIND       PRES   REMARKS
LITTLE ROCK    PTSUNNY   67  50  54 N9        29.92S
N LITTLE ROCK    N/A     64  52  64 N3        29.90S
JACKSONVILLE   SUNNY     67  49  53 NW5       29.91S
CONWAY         CLOUDY    66  50  55 NW12      29.92S
SEARCY         CLOUDY    67  52  58 N6        29.92S
HOT SPRINGS    MOSUNNY   68  51  54 NW8       29.94S
RUSSELLVILLE   CLOUDY    66  48  52 NW6       29.93F
CLINTON        CLOUDY    66  48  52 NW8       29.93S
$$

ARZ036-262300-
EAST ARKANSAS

CITY           SKY/WX    TMP DP  RH WIND       PRES   REMARKS
WEST MEMPHIS   PTSUNNY   62  32  32 N12       29.89R
$$

ARZ050-053-066-070-073-262300-
SOUTHWEST ARKANSAS

CITY           SKY/WX    TMP DP  RH WIND       PRES   REMARKS
ARKADELPHIA    CLOUDY    67  53  61 N6        29.93F
CAMDEN         FAIR      70  48  46 CALM      29.92F
TEXARKANA      PTSUNNY   65  51  60 NE6       29.94F
EL DORADO      PTSUNNY   69  54  58 NW8       29.93F
DE QUEEN       PTSUNNY   66  51  58 VRB5      29.94F
$$

ARZ056-057-069-262300-
SOUTHEAST ARKANSAS

CITY           SKY/WX    TMP DP  RH WIND       PRES   REMARKS
PINE BLUFF     FAIR      67  51  56 N10       29.91F
STUTTGART      CLOUDY    65  53  65 N9        29.92R
MONTICELLO     FAIR      68  53  58 N7        29.91F

$$






USA.gov is the U.S. government's official web portal to all federal, state and local government web resources and services.